Location: Balaclava NSW 2575, Australia
(34.4510°S, 150.4953°E)
Time: 11:22:56
(UTC+10:00)

N. Korean satellite - Pass Details

Date: 22 May 2021
Orbit: 450 x 499 km, 97.2° (Epoch: 24 June)

Event Time Altitude Azimuth Distance (km) Brightness Sun altitude
Rises 17:35:41 0° 177° (S) 2,630 10.1 -7.7°
Reaches altitude 10° 17:37:51 10° 183° (S) 1,735 9.2 -8.1°
Maximum altitude 17:41:25 44° 255° (WSW) 708 7.9 -8.8°
Drops below altitude 10° 17:44:55 10° 328° (NNW) 1,698 10.1 -9.5°
Sets 17:47:01 0° 334° (NNW) 2,566 11.0 -9.9°
